Weatherford, OK

5:28 AM CST on November 20, 2019 (GMT -0600)
Weatherford

Weather History for KOJA - October, 2019

Change the Weather History Date:

Monday, October 21, 2019

  Actual Average (WUND) Record (WUND)
Temperature  
Mean Temperature 56 °F -  
Max Temperature 68 °F - - (-1)
Min Temperature 44 °F - - (-1)
Degree Days  
Heating Degree Days 9    
Growing Degree Days 6 (Base 50)    
Moisture  
Dew Point 26 °F    
Average Humidity 33    
Maximum Humidity 57    
Minimum Humidity 17    
Precipitation  
Precipitation 0.00 in - - ()
Sea Level Pressure  
Sea Level Pressure 29.90 in    
Wind  
Wind Speed 11 mph (NW)    
Max Wind Speed 21 mph    
Max Gust Speed 32 mph    
Visibility 10 miles    
Events      
Averages and records for this station are not official NWS values.
T = Trace of Precipitation, MM = Missing Value Source: NWS Daily Summary

Daily Weather History Graph

Daily Weather History Graph

Search for Another Location

Airport or City:

Astronomy

Oct. 21, 2019 Rise Set
Actual Time 7:46 AM CDT 6:51 PM CDT
Civil Twilight 7:20 AM CDT 7:17 PM CDT
Nautical Twilight 6:50 AM CDT 7:47 PM CDT
Astronomical Twilight 6:21 AM CDT 8:16 PM CDT
Moon 12:11 AM CDT (10/21) 2:58 PM CDT (10/21)
Length of Visible Light 11h 57m
Length of Day
11h 05m
Waning Gibbous, 48% of the Moon is Illuminated
Oct 21
Waning Gibbous
Oct 27
New
Nov 4
First Quarter
Nov 12
Full
Nov 19
Last Quarter

Hourly Weather History & Observations

Time (CDT) Temp. Windchill Dew Point Humidity Pressure Visibility Wind Dir Wind Speed Gust Speed Precip Events Conditions
12:15 AM 53.6 °F - 28.4 °F 38% 29.69 in 10.0 mi NW 5.8 mph - N/A   Clear
12:35 AM 53.6 °F - 26.6 °F 35% 29.69 in 10.0 mi NW 9.2 mph - N/A   Clear
12:55 AM 57.2 °F - 23.0 °F 27% 29.71 in 10.0 mi NNW 18.4 mph 25.3 mph N/A   Clear
1:15 AM 57.2 °F - 23.0 °F 27% 29.73 in 10.0 mi NNW 19.6 mph 28.8 mph N/A   Clear
1:35 AM 57.2 °F - 24.8 °F 29% 29.74 in 10.0 mi NNW 18.4 mph 27.6 mph N/A   Clear
1:55 AM 55.4 °F - 26.6 °F 33% 29.74 in 10.0 mi NNW 16.1 mph 24.2 mph N/A   Clear
2:15 AM 53.6 °F - 26.6 °F 35% 29.75 in 10.0 mi NNW 15.0 mph - N/A   Clear
2:35 AM 55.4 °F - 26.6 °F 33% 29.75 in 10.0 mi NNW 19.6 mph 27.6 mph N/A   Clear
2:55 AM 55.4 °F - 26.6 °F 33% 29.76 in 10.0 mi NNW 17.3 mph 25.3 mph N/A   Clear
3:15 AM 55.4 °F - 28.4 °F 36% 29.78 in 10.0 mi NNW 16.1 mph 25.3 mph N/A   Clear
3:35 AM 53.6 °F - 28.4 °F 38% 29.79 in 10.0 mi NNW 16.1 mph 24.2 mph N/A   Clear
3:55 AM 53.6 °F - 28.4 °F 38% 29.78 in 10.0 mi NNW 16.1 mph 32.2 mph N/A   Clear
4:15 AM 53.6 °F - 28.4 °F 38% 29.78 in 10.0 mi NNW 15.0 mph 20.7 mph N/A   Clear
4:35 AM 51.8 °F - 28.4 °F 41% 29.78 in 10.0 mi NNW 12.7 mph 17.3 mph N/A   Clear
4:55 AM 51.8 °F - 28.4 °F 41% 29.79 in 10.0 mi NW 8.1 mph 16.1 mph N/A   Clear
5:15 AM 50.0 °F - 28.4 °F 43% 29.79 in 10.0 mi NW 9.2 mph - N/A   Clear
5:35 AM 50.0 °F - 28.4 °F 43% 29.79 in 10.0 mi NW 12.7 mph - N/A   Clear
5:55 AM 50.0 °F - 28.4 °F 43% 29.80 in 10.0 mi NNW 8.1 mph - N/A   Clear
6:15 AM 48.2 °F - 28.4 °F 46% 29.82 in 10.0 mi NW 4.6 mph - N/A   Clear
6:35 AM 48.2 °F - 28.4 °F 46% 29.84 in 10.0 mi WNW 4.6 mph - N/A   Clear
6:55 AM 46.4 °F 44.3 °F 30.2 °F 53% 29.85 in 10.0 mi NW 4.6 mph - N/A   Clear
7:15 AM 46.4 °F 44.3 °F 30.2 °F 53% 29.86 in 10.0 mi WNW 4.6 mph - N/A   Clear
7:35 AM 44.6 °F 42.2 °F 30.2 °F 57% 29.87 in 10.0 mi West 4.6 mph - N/A   Clear
7:55 AM 44.6 °F 40.7 °F 30.2 °F 57% 29.89 in 10.0 mi West 6.9 mph - N/A   Clear
8:15 AM 46.4 °F 42.9 °F 30.2 °F 53% 29.89 in 10.0 mi West 6.9 mph - N/A   Clear
8:35 AM 46.4 °F 42.9 °F 30.2 °F 53% 29.90 in 10.0 mi West 6.9 mph - N/A   Clear
8:55 AM 48.2 °F - 30.2 °F 50% 29.90 in 10.0 mi West 6.9 mph - N/A   Clear
9:15 AM 50.0 °F - 30.2 °F 47% 29.92 in 10.0 mi West 6.9 mph - N/A   Clear
9:35 AM 51.8 °F - 30.2 °F 44% 29.92 in 10.0 mi West 8.1 mph - N/A   Clear
9:55 AM 53.6 °F - 30.2 °F 41% 29.92 in 10.0 mi West 10.4 mph - N/A   Clear
10:15 AM 53.6 °F - 30.2 °F 41% 29.93 in 10.0 mi WNW 8.1 mph - N/A   Clear
10:35 AM 55.4 °F - 30.2 °F 38% 29.93 in 10.0 mi NW 12.7 mph 17.3 mph N/A   Clear
10:55 AM 55.4 °F - 30.2 °F 38% 29.93 in 10.0 mi NW 11.5 mph - N/A   Clear
11:15 AM 57.2 °F - 30.2 °F 36% 29.92 in 10.0 mi NNW 11.5 mph - N/A   Clear
11:35 AM 59.0 °F - 30.2 °F 34% 29.92 in 10.0 mi NW 12.7 mph 17.3 mph N/A   Clear
11:55 AM 60.8 °F - 28.4 °F 29% 29.92 in 10.0 mi WNW 11.5 mph 18.4 mph N/A   Clear
12:15 PM 62.6 °F - 24.8 °F 24% 29.93 in 10.0 mi NW 8.1 mph - N/A   Clear
12:35 PM 62.6 °F - 26.6 °F 26% 29.94 in 10.0 mi WNW 12.7 mph 20.7 mph N/A   Clear
12:55 PM 64.4 °F - 26.6 °F 24% 29.94 in 10.0 mi NNW 11.5 mph 18.4 mph N/A   Clear
1:15 PM 64.4 °F - 24.8 °F 22% 29.93 in 10.0 mi NW 13.8 mph 23.0 mph N/A   Clear
1:35 PM 66.2 °F - 23.0 °F 19% 29.92 in 10.0 mi NW 11.5 mph 19.6 mph N/A   Clear
1:55 PM 66.2 °F - 21.2 °F 18% 29.92 in 10.0 mi WNW 16.1 mph 23.0 mph N/A   Clear
2:15 PM 68.0 °F - 21.2 °F 17% 29.91 in 10.0 mi NW 16.1 mph 21.9 mph N/A   Clear
2:35 PM 68.0 °F - 21.2 °F 17% 29.91 in 10.0 mi WNW 13.8 mph 21.9 mph N/A   Clear
2:55 PM 68.0 °F - 21.2 °F 17% 29.91 in 10.0 mi WNW 20.7 mph 24.2 mph N/A   Clear
3:15 PM 68.0 °F - 21.2 °F 17% 29.90 in 10.0 mi NW 17.3 mph 24.2 mph N/A   Clear
3:35 PM 68.0 °F - 21.2 °F 17% 29.90 in 10.0 mi WNW 18.4 mph 26.5 mph N/A   Clear
3:55 PM 68.0 °F - 21.2 °F 17% 29.90 in 10.0 mi WNW 15.0 mph 24.2 mph N/A   Clear
4:15 PM 68.0 °F - 21.2 °F 17% 29.91 in 10.0 mi WNW 17.3 mph 25.3 mph N/A   Clear
4:35 PM 68.0 °F - 21.2 °F 17% 29.91 in 10.0 mi WNW 16.1 mph 26.5 mph N/A   Clear
4:55 PM 68.0 °F - 21.2 °F 17% 29.92 in 10.0 mi WNW 19.6 mph 29.9 mph N/A   Clear
5:15 PM 66.2 °F - 21.2 °F 18% 29.93 in 10.0 mi NW 20.7 mph 26.5 mph N/A   Clear
5:35 PM 64.4 °F - 23.0 °F 21% 29.93 in 10.0 mi WNW 13.8 mph 24.2 mph N/A   Clear
5:55 PM 64.4 °F - 21.2 °F 19% 29.93 in 10.0 mi WNW 16.1 mph 23.0 mph N/A   Clear
6:15 PM 62.6 °F - 23.0 °F 22% 29.94 in 10.0 mi WNW 9.2 mph - N/A   Clear
6:35 PM 60.8 °F - 23.0 °F 23% 29.95 in 10.0 mi WNW 8.1 mph - N/A   Clear
6:55 PM 60.8 °F - 23.0 °F 23% 29.96 in 10.0 mi West 5.8 mph - N/A   Clear
7:15 PM 59.0 °F - 24.8 °F 27% 29.97 in 10.0 mi West 5.8 mph - N/A   Scattered Clouds
7:35 PM 60.8 °F - 23.0 °F 23% 29.98 in 10.0 mi WNW 6.9 mph - N/A   Scattered Clouds
7:55 PM 57.2 °F - 24.8 °F 29% 29.99 in 10.0 mi West 4.6 mph - N/A   Clear
8:15 PM 55.4 °F - 23.0 °F 29% 30.00 in 10.0 mi WNW 5.8 mph - N/A   Clear
8:35 PM 57.2 °F - 23.0 °F 27% 30.01 in 10.0 mi NW 6.9 mph - N/A   Clear
8:55 PM 53.6 °F - 23.0 °F 30% 30.03 in 10.0 mi NW 6.9 mph - N/A   Clear
9:15 PM 53.6 °F - 23.0 °F 30% 30.03 in 10.0 mi NW 4.6 mph - N/A   Clear
9:35 PM 51.8 °F - 23.0 °F 33% 30.04 in 10.0 mi NW 4.6 mph - N/A   Clear
9:55 PM 51.8 °F - 23.0 °F 33% 30.05 in 10.0 mi NW 4.6 mph - N/A   Clear
10:15 PM 50.0 °F - 24.8 °F 37% 30.06 in 10.0 mi NNW 4.6 mph - N/A   Clear
10:35 PM 48.2 °F - 26.6 °F 43% 30.07 in 10.0 mi NW 3.5 mph - N/A   Clear
10:55 PM 46.4 °F 45.2 °F 26.6 °F 46% 30.08 in 10.0 mi NW 3.5 mph - N/A   Clear
11:15 PM 46.4 °F 45.2 °F 26.6 °F 46% 30.09 in 10.0 mi NW 3.5 mph - N/A   Clear
11:35 PM 48.2 °F - 26.6 °F 43% 30.10 in 10.0 mi NW 3.5 mph - N/A   Clear
11:55 PM 50.0 °F - 24.8 °F 37% 30.11 in 10.0 mi WNW 5.8 mph - N/A   Clear